P/2015 Q1 ( Scotti )

Japanese version
Home page
Updated on May 7, 2016

---------------------------------------------------------------------

* Profile

Discovery Date August 18, 2015
Magnitude 18.9 mag
Discoverer J. V. Scotti (Spacewatch, Kitt Peak)

* Pictures

* Orbital Elements

Epoch 2015 Sept. 15.0 TT = JDT 2457280.5
T 2015 Sept.  9.15569 TT                                MPCW
q   1.7516907            (2000.0)            P               Q
n   0.15517693     Peri.  198.96482     +0.74984008     -0.64383146
a   3.4296617      Node   203.31038     +0.64584653     +0.76227627
e   0.4892526      Incl.   22.64922     +0.14360400     -0.06645252
P   6.35
From 326 observations 2015 Aug. 18-2016 Mar. 2, mean residual 0".5.

* Magnitudes Graph

        m1 = 10.0 + 5 log d + 25.0 log r(t - 70)

---------------------------------------------------------------------

The orbital elements are published on M.P.E.C. 2016-F43.
The magnitudes graphs are made with Comet for Windows.

---------------------------------------------------------------------

Copyright(C) Seiichi Yoshida (comet@aerith.net). All rights reserved.